| time (UTC) | temp F | wind direction | speed MPH | gust MPH | rain 1hr in | rain 24hr in | rain mn in | humidity % | barometer mb |
| 20260506023804 | 67 | 56 | 13.0 | 21.0 | 0.00 | 0.00 | 0.00 | 84 | 1028.6 |
| 20260506023305 | 68 | 56 | 14.0 | 18.0 | 0.00 | 0.00 | 0.00 | 83 | 1028.6 |
| 20260506022306 | 67 | 56 | 10.0 | 15.0 | 0.00 | 0.00 | 0.00 | 83 | 1028.6 |
| 20260506021805 | 68 | 61 | 13.0 | 20.0 | 0.00 | 0.00 | 0.00 | 83 | 1028.6 |
| 20260506021305 | 68 | 61 | 13.0 | 20.0 | 0.00 | 0.00 | 0.00 | 83 | 1028.6 |
| 20260506020805 | 68 | 61 | 9.0 | 14.0 | 0.00 | 0.00 | 0.00 | 85 | 1028.6 |
| 20260506020305 | 68 | 64 | 13.0 | 17.0 | 0.00 | 0.00 | 0.00 | 84 | 1028.6 |
| 20260506014804 | 68 | 64 | 10.0 | 13.0 | 0.00 | 0.00 | 0.00 | 84 | 1028.8 |
| 20260506014305 | 68 | 64 | 12.0 | 16.0 | 0.00 | 0.00 | 0.00 | 85 | 1028.8 |
| 20260506013305 | 68 | 64 | 10.0 | 14.0 | 0.00 | 0.00 | 0.00 | 84 | 1028.8 |
| 20260506012805 | 68 | 64 | 10.0 | 15.0 | 0.00 | 0.00 | 0.00 | 84 | 1028.9 |
| 20260506012307 | 68 | 64 | 10.0 | 15.0 | 0.00 | 0.00 | 0.00 | 85 | 1028.9 |
| 20260506010805 | 68 | 65 | 13.0 | 17.0 | 0.00 | 0.00 | 0.00 | 84 | 1028.9 |
| 20260506010305 | 68 | 64 | 10.0 | 18.0 | 0.00 | 0.00 | 0.00 | 85 | 1029.0 |
| 20260506004805 | 69 | 64 | 11.0 | 16.0 | 0.00 | 0.00 | 0.00 | 85 | 1029.1 |
| 20260506004305 | 69 | 63 | 7.0 | 14.0 | 0.00 | 0.00 | 0.00 | 87 | 1029.1 |
| 20260506003805 | 68 | 61 | 9.0 | 14.0 | 0.00 | 0.00 | 0.00 | 87 | 1029.1 |
| 20260506002804 | 68 | 60 | 9.0 | 16.0 | 0.00 | 0.00 | 0.00 | 85 | 1029.3 |
| 20260506002306 | 69 | 61 | 9.0 | 14.0 | 0.00 | 0.00 | 0.00 | 85 | 1029.5 |
| 20260505234805 | 68 | 73 | 7.0 | 14.0 | 0.00 | 0.00 | 0.00 | 86 | 1029.9 |
| 20260505234304 | 69 | 72 | 6.0 | 9.0 | 0.00 | 0.00 | 0.00 | 85 | 1030.0 |
| 20260505233304 | 69 | 62 | 7.0 | 12.0 | 0.00 | 0.00 | 0.00 | 86 | 1030.0 |
| 20260505232805 | 70 | 61 | 8.0 | 14.0 | 0.00 | 0.00 | 0.00 | 84 | 1030.1 |
| 20260505232305 | 71 | 60 | 6.0 | 12.0 | 0.00 | 0.00 | 0.00 | 84 | 1030.1 |
| 20260505230304 | 70 | 75 | 6.0 | 12.0 | 0.00 | 0.00 | 0.00 | 83 | 1030.3 |
| 20260505224305 | 71 | 42 | 6.0 | 10.0 | 0.00 | 0.00 | 0.00 | 83 | 1030.5 |
| 20260505223804 | 71 | 68 | 6.0 | 9.0 | 0.00 | 0.00 | 0.00 | 84 | 1030.6 |
| 20260505222804 | 69 | 69 | 7.0 | 10.0 | 0.00 | 0.00 | 0.00 | 86 | 1030.6 |
| 20260505222306 | 68 | 73 | 6.0 | 10.0 | 0.00 | 0.00 | 0.00 | 87 | 1030.5 |
| 20260505221306 | 65 | 75 | 6.0 | 10.0 | 0.00 | 0.00 | 0.00 | 90 | 1030.8 |
| 20260505220805 | 66 | 62 | 6.0 | 9.0 | 0.00 | 0.00 | 0.00 | 90 | 1030.9 |
| 20260505212805 | 68 | 79 | 5.0 | 10.0 | 0.00 | 0.00 | 0.00 | 91 | 1031.0 |
| 20260505212306 | 66 | 89 | 5.0 | 8.0 | 0.00 | 0.00 | 0.00 | 90 | 1031.0 |
| 20260505211804 | 66 | 74 | 5.0 | 8.0 | 0.00 | 0.00 | 0.00 | 89 | 1031.0 |
| 20260505205305 | 67 | 82 | 5.0 | 7.0 | 0.00 | 0.00 | 0.00 | 88 | 1030.9 |
| 20260505204304 | 66 | 92 | 6.0 | 8.0 | 0.00 | 0.00 | 0.00 | 90 | 1030.9 |
| 20260505202805 | 63 | 53 | 2.0 | 5.0 | 0.00 | 0.00 | 0.00 | 96 | 1031.0 |
| 20260505201805 | 61 | 76 | 2.0 | 6.0 | 0.00 | 0.00 | 0.00 | 97 | 1030.7 |
| 20260505201305 | 60 | 70 | 4.0 | 7.0 | 0.00 | 0.00 | 0.00 | 97 | 1030.7 |
| 20260505195305 | 60 | 67 | 3.0 | 7.0 | 0.00 | 0.00 | 0.00 | 97 | 1030.5 |
| 20260505194804 | 59 | 65 | 2.0 | 5.0 | 0.00 | 0.00 | 0.00 | 98 | 1030.5 |
| 20260505194305 | 59 | 76 | 3.0 | 7.0 | 0.00 | 0.00 | 0.00 | 97 | 1030.5 |
| 20260505193805 | 59 | 92 | 1.0 | 3.0 | 0.00 | 0.00 | 0.00 | 97 | 1030.5 |
| 20260505193304 | 59 | 92 | 1.0 | 2.0 | 0.00 | 0.00 | 0.00 | 97 | 1030.5 |
| 20260505191304 | 59 | 93 | 2.0 | 3.0 | 0.00 | 0.00 | 0.00 | 97 | 1030.4 |
| 20260505190804 | 59 | 92 | 3.0 | 6.0 | 0.00 | 0.00 | 0.00 | 97 | 1030.3 |
| 20260505190305 | 59 | 86 | 4.0 | 7.0 | 0.00 | 0.00 | 0.00 | 97 | 1030.3 |
| 20260505185805 | 59 | 90 | 3.0 | 7.0 | 0.00 | 0.00 | 0.00 | 97 | 1030.3 |
| 20260505184805 | 59 | 79 | 2.0 | 7.0 | 0.00 | 0.00 | 0.00 | 97 | 1030.2 |
| 20260505183804 | 59 | 53 | 1.0 | 6.0 | 0.00 | 0.00 | 0.00 | 97 | 1030.2 |
| 20260505183304 | 60 | 59 | 0.0 | 2.0 | 0.00 | 0.00 | 0.00 | 97 | 1030.2 |
| 20260505182306 | 60 | 60 | 1.0 | 2.0 | 0.00 | 0.00 | 0.00 | 97 | 1030.1 |
| 20260505181304 | 60 | 61 | 3.0 | 6.0 | 0.00 | 0.00 | 0.00 | 97 | 1030.1 |
| 20260505180804 | 59 | 73 | 2.0 | 5.0 | 0.00 | 0.00 | 0.00 | 97 | 1030.1 |
| 20260505175804 | 59 | 77 | 2.0 | 3.0 | 0.00 | 0.00 | 0.00 | 97 | 1030.1 |
| 20260505175305 | 59 | 77 | 2.0 | 5.0 | 0.00 | 0.00 | 0.00 | 97 | 1030.1 |
| 20260505174805 | 59 | 79 | 2.0 | 5.0 | 0.00 | 0.00 | 0.00 | 96 | 1030.0 |
| 20260505173304 | 59 | 78 | 3.0 | 6.0 | 0.00 | 0.00 | 0.00 | 96 | 1030.1 |
| 20260505172306 | 59 | 73 | 2.0 | 5.0 | 0.00 | 0.00 | 0.00 | 96 | 1030.1 |
| 20260505170804 | 60 | 84 | 4.0 | 6.0 | 0.00 | 0.00 | 0.00 | 95 | 1030.2 |
| 20260505165804 | 60 | 101 | 5.0 | 7.0 | 0.00 | 0.00 | 0.00 | 95 | 1030.3 |
| 20260505165306 | 60 | 93 | 3.0 | 6.0 | 0.00 | 0.00 | 0.00 | 95 | 1030.3 |
| 20260505164805 | 60 | 95 | 5.0 | 8.0 | 0.00 | 0.00 | 0.00 | 95 | 1030.3 |
| 20260505163805 | 60 | 89 | 3.0 | 7.0 | 0.00 | 0.00 | 0.00 | 95 | 1030.3 |
| 20260505163304 | 60 | 87 | 2.0 | 3.0 | 0.00 | 0.00 | 0.00 | 95 | 1030.4 |
| 20260505162804 | 61 | 81 | 3.0 | 5.0 | 0.00 | 0.00 | 0.00 | 95 | 1030.4 |
| 20260505161304 | 61 | 80 | 3.0 | 8.0 | 0.00 | 0.00 | 0.00 | 95 | 1030.3 |
| 20260505160305 | 61 | 89 | 6.0 | 9.0 | 0.00 | 0.00 | 0.00 | 95 | 1030.2 |
| 20260505151804 | 60 | 89 | 5.0 | 8.0 | 0.00 | 0.00 | 0.00 | 95 | 1030.5 |
| 20260505150305 | 61 | 91 | 5.0 | 8.0 | 0.00 | 0.00 | 0.00 | 95 | 1030.7 |
| 20260505130305 | 61 | 92 | 2.0 | 3.0 | 0.00 | 0.00 | 0.00 | 93 | 1031.7 |
| 20260505124805 | 61 | 87 | 5.0 | 7.0 | 0.00 | 0.00 | 0.00 | 93 | 1031.8 |
| 20260505124304 | 61 | 94 | 6.0 | 9.0 | 0.00 | 0.00 | 0.00 | 93 | 1031.7 |
| 20260505123304 | 61 | 91 | 5.0 | 7.0 | 0.00 | 0.00 | 0.00 | 93 | 1031.8 |
| 20260505122306 | 61 | 86 | 3.0 | 6.0 | 0.00 | 0.00 | 0.00 | 93 | 1031.8 |
| 20260505121304 | 61 | 91 | 3.0 | 6.0 | 0.00 | 0.00 | 0.00 | 93 | 1031.8 |
| 20260505120840 | 61 | 90 | 4.0 | 7.0 | 0.00 | 0.00 | 0.00 | 93 | 1031.9 |
| 20260505115305 | 61 | 95 | 4.0 | 9.0 | 0.00 | 0.00 | 0.00 | 92 | 1031.9 |
| 20260505114805 | 61 | 92 | 3.0 | 9.0 | 0.00 | 0.00 | 0.00 | 92 | 1031.8 |
| 20260505113805 | 61 | 88 | 5.0 | 7.0 | 0.00 | 0.00 | 0.00 | 92 | 1031.8 |
| 20260505113304 | 61 | 107 | 6.0 | 7.0 | 0.00 | 0.00 | 0.00 | 92 | 1031.7 |
| 20260505111304 | 61 | 66 | 3.0 | 7.0 | 0.00 | 0.00 | 0.00 | 92 | 1031.9 |
| 20260505110304 | 61 | 101 | 4.0 | 8.0 | 0.00 | 0.00 | 0.00 | 92 | 1032.0 |
| 20260505101805 | 61 | 96 | 3.0 | 7.0 | 0.00 | 0.00 | 0.00 | 91 | 1032.3 |
| 20260505100305 | 61 | 71 | 3.0 | 8.0 | 0.00 | 0.00 | 0.00 | 91 | 1032.3 |
| 20260505095805 | 61 | 81 | 4.0 | 6.0 | 0.00 | 0.00 | 0.00 | 91 | 1032.4 |
| 20260505095305 | 61 | 100 | 3.0 | 6.0 | 0.00 | 0.00 | 0.00 | 91 | 1032.3 |
| 20260505093305 | 61 | 55 | 3.0 | 7.0 | 0.00 | 0.00 | 0.00 | 90 | 1032.3 |
| 20260505092805 | 61 | 80 | 4.0 | 8.0 | 0.00 | 0.00 | 0.00 | 90 | 1032.3 |
| 20260505092305 | 61 | 61 | 4.0 | 7.0 | 0.00 | 0.00 | 0.00 | 90 | 1032.3 |
| 20260505091805 | 61 | 87 | 3.0 | 6.0 | 0.00 | 0.00 | 0.00 | 91 | 1032.3 |
| 20260505085805 | 61 | 58 | 3.0 | 5.0 | 0.00 | 0.00 | 0.00 | 92 | 1032.2 |
| 20260505085305 | 60 | 52 | 4.0 | 6.0 | 0.00 | 0.00 | 0.00 | 92 | 1032.2 |
| 20260505084804 | 60 | 64 | 4.0 | 7.0 | 0.00 | 0.00 | 0.00 | 91 | 1032.2 |
| 20260505084305 | 60 | 87 | 3.0 | 7.0 | 0.00 | 0.00 | 0.00 | 92 | 1032.2 |
| 20260505083804 | 60 | 57 | 3.0 | 6.0 | 0.00 | 0.00 | 0.00 | 92 | 1032.2 |
| 20260505082805 | 60 | 75 | 3.0 | 5.0 | 0.00 | 0.00 | 0.00 | 92 | 1032.1 |
| 20260505081805 | 60 | 86 | 3.0 | 5.0 | 0.00 | 0.00 | 0.00 | 92 | 1032.1 |
| 20260505080805 | 60 | 75 | 1.0 | 5.0 | 0.00 | 0.00 | 0.00 | 91 | 1032.1 |
| 20260505080305 | 60 | 91 | 5.0 | 8.0 | 0.00 | 0.00 | 0.00 | 91 | 1032.1 |
| 20260505075805 | 60 | 84 | 3.0 | 5.0 | 0.00 | 0.00 | 0.00 | 91 | 1032.0 |
| 20260505074305 | 60 | 87 | 5.0 | 7.0 | 0.00 | 0.00 | 0.00 | 90 | 1032.1 |
| 20260505073805 | 60 | 93 | 2.0 | 9.0 | 0.00 | 0.00 | 0.00 | 90 | 1032.1 |
| 20260505073305 | 60 | 86 | 6.0 | 9.0 | 0.00 | 0.00 | 0.00 | 90 | 1032.0 |
| 20260505071804 | 61 | 91 | 3.0 | 8.0 | 0.00 | 0.00 | 0.00 | 89 | 1032.0 |
| 20260505070305 | 61 | 89 | 6.0 | 9.0 | 0.00 | 0.00 | 0.00 | 89 | 1031.8 |
| 20260505065804 | 61 | 91 | 6.0 | 12.0 | 0.00 | 0.00 | 0.00 | 89 | 1031.8 |
| 20260505065304 | 61 | 83 | 5.0 | 9.0 | 0.00 | 0.00 | 0.00 | 89 | 1031.8 |
| 20260505063804 | 61 | 93 | 9.0 | 13.0 | 0.00 | 0.00 | 0.00 | 89 | 1031.8 |
| 20260505060304 | 62 | 70 | 6.0 | 10.0 | 0.00 | 0.00 | 0.00 | 88 | 1031.9 |
| 20260505054804 | 62 | 72 | 6.0 | 10.0 | 0.00 | 0.00 | 0.00 | 87 | 1031.8 |
| 20260505054305 | 62 | 68 | 5.0 | 9.0 | 0.00 | 0.00 | 0.00 | 88 | 1031.8 |
| 20260505053304 | 62 | 71 | 5.0 | 12.0 | 0.00 | 0.00 | 0.00 | 88 | 1031.8 |
| 20260505052804 | 62 | 81 | 7.0 | 12.0 | 0.00 | 0.00 | 0.00 | 88 | 1031.8 |
| 20260505051804 | 62 | 75 | 6.0 | 8.0 | 0.00 | 0.00 | 0.00 | 88 | 1031.9 |
| 20260505051304 | 62 | 68 | 5.0 | 9.0 | 0.00 | 0.00 | 0.00 | 87 | 1032.0 |
| 20260505050805 | 62 | 75 | 6.0 | 10.0 | 0.00 | 0.00 | 0.00 | 87 | 1032.0 |
| 20260505050304 | 63 | 82 | 6.0 | 12.0 | 0.00 | 0.00 | 0.00 | 87 | 1032.0 |
| 20260505041305 | 63 | 78 | 9.0 | 17.0 | 0.00 | 0.00 | 0.00 | 87 | 1032.1 |
| 20260505040304 | 63 | 93 | 7.0 | 13.0 | 0.00 | 0.00 | 0.00 | 86 | 1032.1 |
| 20260505035304 | 64 | 83 | 8.0 | 17.0 | 0.00 | 0.00 | 0.00 | 86 | 1032.0 |
| 20260505034304 | 64 | 89 | 12.0 | 15.0 | 0.00 | 0.00 | 0.00 | 85 | 1032.0 |
| 20260505033805 | 64 | 75 | 8.0 | 12.0 | 0.00 | 0.00 | 0.00 | 86 | 1032.0 |
| 20260505031804 | 64 | 95 | 9.0 | 14.0 | 0.00 | 0.00 | 0.00 | 85 | 1032.0 |
| 20260505031306 | 64 | 91 | 6.0 | 12.0 | 0.00 | 0.00 | 0.00 | 86 | 1032.0 |
| 20260505025805 | 65 | 90 | 9.0 | 13.0 | 0.00 | 0.00 | 0.00 | 84 | 1032.0 |
| 20260505025305 | 65 | 91 | 9.0 | 14.0 | 0.00 | 0.00 | 0.00 | 84 | 1031.9 |
| 20260505024805 | 65 | 82 | 4.0 | 9.0 | 0.00 | 0.00 | 0.00 | 84 | 1031.9 |
| 20260505024305 | 65 | 82 | 8.0 | 13.0 | 0.00 | 0.00 | 0.00 | 83 | 1031.9 |